• In Deutschland
  • Länderverzeichnis
  • Für 7 Tage
  • Wassertemperatur
  • Satellitenkarten
  • Wetterkarte
  • Widgets
  • user-avatar
    Anmelden

    Stündliche Wetter Adelaide

    Heute, 12 Dezember, Dienstag

    Zeit Temperatur Niederschläge Wind Luftdruck Luftfeuchtigkeit
    00:00 +19°C° 0 mm 3 m/S 759 mmHg 60%
    01:00 +19°C° 0 mm 3 m/S 758 mmHg 62%
    02:00 +18°C° 0 mm 2 m/S 758 mmHg 64%
    03:00 +18°C° 0 mm 2 m/S 757 mmHg 67%
    04:00 +19°C° 0 mm 2 m/S 758 mmHg 63%
    05:00 +20°C° 0 mm 3 m/S 758 mmHg 59%
    06:00 +21°C° 0 mm 3 m/S 758 mmHg 55%
    07:00 +25°C° 0 mm 3 m/S 757 mmHg 45%
    08:00 +28°C° 0 mm 3 m/S 757 mmHg 35%
    09:00 +31°C° 0 mm 3 m/S 757 mmHg 26%
    10:00 +34°C° 0 mm 3 m/S 757 mmHg 23%
    11:00 +35°C° 0 mm 3 m/S 756 mmHg 20%
    12:00 +37°C° 0 mm 3 m/S 756 mmHg 17%
    13:00 +37°C° 0 mm 3 m/S 755 mmHg 17%
    14:00 +38°C° 0 mm 3 m/S 754 mmHg 16%
    15:00 +38°C° 0 mm 3 m/S 754 mmHg 15%
    16:00 +37°C° 0 mm 2 m/S 754 mmHg 16%
    17:00 +36°C° 0 mm 2 m/S 753 mmHg 18%
    18:00 +35°C° 0 mm 2 m/S 753 mmHg 19%
    19:00 +32°C° 0 mm 2 m/S 753 mmHg 21%
    20:00 +30°C° 0 mm 3 m/S 753 mmHg 23%
    21:00 +29°C° 0 mm 3 m/S 753 mmHg 25%
    22:00 +29°C° 0 mm 3 m/S 752 mmHg 26%
    23:00 +28°C° 0 mm 4 m/S 752 mmHg 26%

    Morgen, 13 Dezember, Mittwoch

    Zeit Temperatur Niederschläge Wind Luftdruck Luftfeuchtigkeit
    00:00 +28°C° 0 mm 4 m/S 752 mmHg 26%
    01:00 +28°C° 0 mm 5 m/S 751 mmHg 25%
    02:00 +28°C° 0 mm 5 m/S 751 mmHg 24%
    03:00 +28°C° 0 mm 5 m/S 750 mmHg 23%
    04:00 +29°C° 0 mm 5 m/S 750 mmHg 22%
    05:00 +29°C° 0 mm 5 m/S 750 mmHg 21%
    06:00 +30°C° 0 mm 6 m/S 750 mmHg 19%
    07:00 +34°C° 0 mm 6 m/S 750 mmHg 17%
    08:00 +36°C° 0 mm 7 m/S 749 mmHg 14%
    09:00 +40°C° 0 mm 7 m/S 749 mmHg 12%
    10:00 +40°C° 0 mm 7 m/S 749 mmHg 13%
    11:00 +40°C° 0 mm 8 m/S 749 mmHg 14%
    12:00 +40°C° 0 mm 8 m/S 748 mmHg 15%
    13:00 +39°C° 0 mm 8 m/S 748 mmHg 16%
    14:00 +39°C° 0 mm 7 m/S 748 mmHg 17%
    15:00 +39°C° 0 mm 7 m/S 748 mmHg 17%
    16:00 +36°C° 0,1 mm 6 m/S 748 mmHg 22%
    17:00 +34°C° 0,1 mm 6 m/S 748 mmHg 27%
    18:00 +32°C° 0,1 mm 5 m/S 749 mmHg 32%
    19:00 +29°C° 0 mm 5 m/S 749 mmHg 38%
    20:00 +27°C° 0 mm 5 m/S 750 mmHg 44%
    21:00 +25°C° 0 mm 5 m/S 750 mmHg 50%
    22:00 +23°C° 0,1 mm 5 m/S 751 mmHg 57%
    23:00 +22°C° 0,1 mm 4 m/S 751 mmHg 64%

    übermorgen, 14 Dezember, Donnerstag

    Zeit Temperatur Niederschläge Wind Luftdruck Luftfeuchtigkeit
    00:00 +21°C° 0,1 mm 4 m/S 751 mmHg 70%
    01:00 +21°C° 0 mm 4 m/S 751 mmHg 74%
    02:00 +20°C° 0 mm 4 m/S 751 mmHg 78%
    03:00 +19°C° 0 mm 5 m/S 751 mmHg 82%
    04:00 +19°C° 0 mm 5 m/S 752 mmHg 81%
    05:00 +19°C° 0 mm 5 m/S 753 mmHg 79%
    06:00 +19°C° 0 mm 5 m/S 753 mmHg 77%
    07:00 +20°C° 0 mm 5 m/S 754 mmHg 71%
    08:00 +21°C° 0 mm 5 m/S 754 mmHg 64%
    09:00 +21°C° 0 mm 4 m/S 755 mmHg 58%
    10:00 +22°C° 0 mm 5 m/S 755 mmHg 53%
    11:00 +23°C° 0 mm 5 m/S 755 mmHg 47%
    12:00 +25°C° 0 mm 5 m/S 755 mmHg 42%
    13:00 +25°C° 0 mm 5 m/S 755 mmHg 43%
    14:00 +25°C° 0 mm 5 m/S 754 mmHg 43%
    15:00 +24°C° 0 mm 6 m/S 754 mmHg 44%
    16:00 +23°C° 0 mm 5 m/S 755 mmHg 48%
    17:00 +22°C° 0 mm 5 m/S 755 mmHg 51%
    18:00 +21°C° 0 mm 5 m/S 755 mmHg 55%
    19:00 +20°C° 0 mm 5 m/S 756 mmHg 59%
    20:00 +19°C° 0 mm 4 m/S 756 mmHg 63%
    21:00 +18°C° 0 mm 4 m/S 756 mmHg 68%
    22:00 +17°C° 0 mm 4 m/S 756 mmHg 69%
    23:00 +17°C° 0 mm 3 m/S 756 mmHg 70%

    15 Dezember, Freitag

    Zeit Temperatur Niederschläge Wind Luftdruck Luftfeuchtigkeit
    00:00 +16°C° 0 mm 3 m/S 756 mmHg 72%
    01:00 +16°C° 0 mm 2 m/S 756 mmHg 73%
    02:00 +15°C° 0 mm 2 m/S 756 mmHg 75%
    03:00 +15°C° 0 mm 2 m/S 755 mmHg 77%
    04:00 +16°C° 0 mm 1 m/S 756 mmHg 74%
    05:00 +16°C° 0 mm 1 m/S 756 mmHg 72%
    06:00 +18°C° 0 mm 1 m/S 756 mmHg 70%
    07:00 +19°C° 0 mm 1 m/S 756 mmHg 62%
    08:00 +21°C° 0 mm 1 m/S 757 mmHg 53%
    09:00 +23°C° 0 mm 1 m/S 757 mmHg 45%
    10:00 +24°C° 0 mm 2 m/S 756 mmHg 42%
    11:00 +25°C° 0 mm 3 m/S 756 mmHg 39%
    12:00 +26°C° 0 mm 3 m/S 755 mmHg 35%
    13:00 +26°C° 0 mm 4 m/S 755 mmHg 36%
    14:00 +26°C° 0 mm 4 m/S 755 mmHg 36%
    15:00 +26°C° 0 mm 4 m/S 754 mmHg 37%
    16:00 +25°C° 0 mm 4 m/S 754 mmHg 41%
    17:00 +23°C° 0 mm 4 m/S 755 mmHg 46%
    18:00 +22°C° 0 mm 4 m/S 755 mmHg 51%
    19:00 +21°C° 0 mm 4 m/S 756 mmHg 57%
    20:00 +20°C° 0 mm 4 m/S 756 mmHg 64%
    21:00 +19°C° 0 mm 4 m/S 756 mmHg 70%
    22:00 +19°C° 0 mm 3 m/S 756 mmHg 73%
    23:00 +18°C° 0 mm 3 m/S 756 mmHg 77%

    16 Dezember, Samstag

    Zeit Temperatur Niederschläge Wind Luftdruck Luftfeuchtigkeit
    00:00 +18°C° 0 mm 2 m/S 756 mmHg 80%
    01:00 +17°C° 0 mm 2 m/S 756 mmHg 82%
    02:00 +17°C° 0 mm 2 m/S 756 mmHg 84%
    03:00 +17°C° 0 mm 2 m/S 757 mmHg 86%
    04:00 +18°C° 0 mm 1 m/S 757 mmHg 83%
    05:00 +18°C° 0 mm 1 m/S 757 mmHg 80%
    06:00 +19°C° 0 mm 1 m/S 758 mmHg 77%
    07:00 +21°C° 0 mm 1 m/S 758 mmHg 67%
    08:00 +23°C° 0 mm 1 m/S 758 mmHg 56%
    09:00 +25°C° 0 mm 1 m/S 758 mmHg 46%
    10:00 +26°C° 0 mm 2 m/S 758 mmHg 42%
    11:00 +27°C° 0 mm 2 m/S 757 mmHg 38%
    12:00 +29°C° 0 mm 2 m/S 757 mmHg 34%
    13:00 +29°C° 0 mm 3 m/S 756 mmHg 34%
    14:00 +29°C° 0 mm 3 m/S 756 mmHg 34%
    15:00 +29°C° 0 mm 4 m/S 756 mmHg 35%
    16:00 +28°C° 0 mm 4 m/S 756 mmHg 39%
    17:00 +27°C° 0 mm 5 m/S 756 mmHg 43%
    18:00 +25°C° 0 mm 5 m/S 756 mmHg 47%
    19:00 +23°C° 0 mm 5 m/S 756 mmHg 52%
    20:00 +22°C° 0 mm 5 m/S 756 mmHg 57%
    21:00 +20°C° 0 mm 4 m/S 757 mmHg 62%
    22:00 +20°C° 0 mm 4 m/S 756 mmHg 62%
    23:00 +20°C° 0 mm 4 m/S 756 mmHg 61%

    17 Dezember, Sonntag

    Zeit Temperatur Niederschläge Wind Luftdruck Luftfeuchtigkeit
    00:00 +20°C° 0 mm 4 m/S 755 mmHg 61%
    01:00 +20°C° 0 mm 4 m/S 754 mmHg 62%
    02:00 +20°C° 0 mm 4 m/S 754 mmHg 63%
    03:00 +20°C° 0 mm 3 m/S 753 mmHg 64%
    04:00 +21°C° 0 mm 4 m/S 753 mmHg 59%
    05:00 +22°C° 0 mm 4 m/S 753 mmHg 55%
    06:00 +23°C° 0 mm 5 m/S 753 mmHg 50%
    07:00 +27°C° 0 mm 5 m/S 753 mmHg 41%
    08:00 +30°C° 0 mm 5 m/S 753 mmHg 32%
    09:00 +33°C° 0 mm 6 m/S 754 mmHg 24%
    10:00 +35°C° 0 mm 5 m/S 753 mmHg 21%
    11:00 +37°C° 0 mm 5 m/S 752 mmHg 19%
    12:00 +40°C° 0 mm 4 m/S 752 mmHg 16%
    13:00 +40°C° 0 mm 4 m/S 751 mmHg 16%
    14:00 +40°C° 0 mm 3 m/S 750 mmHg 15%
    15:00 +42°C° 0 mm 3 m/S 750 mmHg 14%
    16:00 +40°C° 0 mm 2 m/S 750 mmHg 15%
    17:00 +39°C° 0 mm 2 m/S 749 mmHg 16%
    18:00 +38°C° 0 mm 2 m/S 749 mmHg 17%
    19:00 +37°C° 0 mm 3 m/S 749 mmHg 18%
    20:00 +36°C° 0 mm 4 m/S 749 mmHg 18%
    21:00 +35°C° 0 mm 5 m/S 749 mmHg 18%
    22:00 +35°C° 0 mm 4 m/S 749 mmHg 18%
    23:00 +35°C° 0 mm 4 m/S 749 mmHg 18%
    Mehr zeigen